La Roger Pingeon - 04/04/2010

Sportive de 87 Km


Pl Do. Nom - Surname Prénom - Name Club - Team TEMPS - Time /sx Vit.
1 1437 ZAMORA benjamin montagnac avenir cycliste 02:23:49 1 36,29
2 1456 CAMPISTROUS romain saint juery olympique 02:26:02 2 35,75
3 1204 LAVAILL xavier roue libre gignacoise 02:26:03 3 35,74
4 1405 OLIVE aurelien montagnac avenir cycliste 02:26:34 4 35,61
5 1469 BALEZ cedric vs grand ales 02:26:34 5 35,61
6 1223 DURBIANO romain as quillan 02:26:34 6 35,61
7 1296 ANGLIVIEL nicolas montagnac avenir cycliste 02:26:35 7 35,61
8 1502 DROUERE thierry sud velo ne jetez plus 02:26:35 8 35,61
9 1279 DELIEUZE gregoire roue libre gignacoise 02:26:35 9 35,61
10 1209 PINOL danny mousquetaires cycliste pradeens 02:26:35 10 35,61
11 1582 POURTIER jean-marc montagnac avenir cycliste 02:26:36 11 35,61
12 1341 DONNADIEU jean yves roue libre gignacoise 02:26:36 12 35,61
13 1432 VILORIA stephane vitrolles triathlon 02:26:36 13 35,60
14 1208 LE GOFF david   02:26:36 14 35,60
15 1445 LEFEBVRE richard lunel bike 02:26:37 15 35,60
16 1467 HUERTAS frederic   02:26:37 16 35,60
17 1203 TORQUEBIAU gael roue libre gignacoise 02:26:38 17 35,60
18 1501 DEBAR laurent sud velo ne jetez plus 02:26:38 18 35,60
19 1315 SANTANAC michel cc sigean 02:26:39 19 35,59
20 1412 FOURNIER thibault vc vedasien 02:26:44 20 35,57
21 1496 BRONSTEIN julien sud velo ne jetez plus 02:30:10 21 34,76
22 1511 MICHIELETTO kevin saint juery olympique 02:31:31 22 34,45
23 1528 VETTOR thierry cc st drezery 02:31:33 23 34,44
24 1285 ANDREU david   02:31:40 24 34,42
25 1383 LACROIX julien montagnac avenir cycliste 02:31:40 25 34,41
26 1255 LE GOFF fabien asph 02:31:40 26 34,41
27 1484 DARCHE gil vcc biterrois 02:31:41 27 34,41
28 1522 TOMAS william mende run and bike 02:31:42 28 34,41
29 1376 GERBAL bruno vc mauguio 02:31:42 29 34,41
30 1213 BOYER thierry vc mauguio 02:31:42 30 34,41
31 1259 SANGUINETTI julien cc sigean 02:31:42 31 34,41
32 1363 AUDRIN christian roue libre gignacoise 02:31:43 32 34,41
33 1345 BENOIT philippe vc salindres 02:31:43 33 34,41
34 1464 ROCH bruno teyran bike 34 02:31:43 34 34,40
35 1327 DIAZ pierre montpellier languedoc cyclisme 02:35:00 35 33,67
36 1555 LEQUEUX jean claude la fleche du midi 02:35:01 36 33,67
37 1593 BILLUART dominique velo sport saint affricain 02:35:02 37 33,67
38 1265 DANJOU stephane   02:35:02 38 33,67
39 1485 CAMARENA josé montagnac avenir cycliste 02:35:02 39 33,67
40 1486 REVERDY georges bike aventure 02:35:02 40 33,67
41 1245 NICOLAU alain vs narbonne 02:35:02 41 33,67
42 1210 FABRE olivier montagnac avenir cycliste 02:35:02 42 33,67
43 1395 MAS fabrice roue libre gignacoise 02:35:04 43 33,66
44 1507 REVEILLAS livia sud velo ne jetez plus 02:35:04 1 33,66
45 1504 FROLI alain sud velo ne jetez plus 02:35:04 44 33,66
46 1314 CRUPEAUX eric montagnac avenir cycliste 02:35:05 45 33,66
47 1206 PENDERY andrew   02:35:05 46 33,66
48 1222 GOURON michel la fleche du midi 02:35:06 47 33,66
49 1313 BEURVILLE willy vcll pezenas 02:35:06 48 33,66
50 1431 PUERTA angel team 09 pays d'olmes 02:35:06 49 33,66
51 1503 FLORENTIN françois sud velo ne jetez plus 02:35:06 50 33,65
52 1451 BONICEL andre vcll pezenas 02:35:07 51 33,65
53 1465 DAUNIZEAU herve les chameaux de beziers 02:35:07 52 33,65
54 1455 BORROSSI dominique bike aventure 02:35:08 53 33,65
55 1393 CHAPEL fabien cc saint drezery 02:35:09 54 33,64
56 1408 TARROUX gilles eclp 02:35:09 55 33,64
57 1600 PANZERI jean marc ariegeoise cyclo club 02:35:09 56 33,64
58 1483 DARCHE jean pierre vcc biterrois 02:35:09 57 33,64
59 1219 ARDISSON david   02:35:11 58 33,64
60 1588 THIBAUD laurent bike aventure 02:35:15 59 33,62
61 1439 GOMANNE patrick lunel bike 02:35:15 60 33,62
62 1306 MARTINEZ thierry   02:35:31 61 33,56
63 1562 CASTAGNE thierry montagnac avenir cycliste 02:36:32 62 33,35
64 1205 MASSART nicolas roue libre gignacoise 02:36:32 63 33,34
65 1414 ANDRE christian vcll pezenas 02:38:53 64 32,85
66 1396 ROSSIGNOL marc tam cyclo 02:38:53 65 32,85
67 1509 CUESTA hilario montagnac avenir cycliste 02:38:54 66 32,85
68 1207 VENUTO gerard   02:38:54 67 32,85
69 1471 HIERNAUX daniel montagnac avenir cycliste 02:38:54 68 32,85
70 1367 TRENZA jose vc mauguio 02:38:54 69 32,85
71 1609 BRANDON christian pezenas vcll 02:38:55 70 32,85
72 1531 LEJEUNE eloic asph montpellier 02:38:55 71 32,85
73 1419 DUMAS stephane cs craven 02:38:55 72 32,84
74 1351 LAUSSEL fabrice vcll pezenas 02:38:56 73 32,84
75 1229 BUSCAIL olivier as formica 02:38:57 74 32,84
76 1201 OUILLIÉ laurent roue libre gignacoise 02:38:57 75 32,84
77 1302 CABALLE michel vcll pezenas 02:38:57 76 32,84
78 1518 FLOURET remi   02:39:44 77 32,68
79 1371 GIL nicolas   02:39:54 78 32,64
80 1596 DEJEAN pierre vc bressolais 02:39:58 79 32,63
81 1474 ETIENNE david vcll pezenas 02:40:38 80 32,49
82 1481 MATTASOGLIO herald mtb saint aunes 02:42:32 81 32,11
83 1221 LAGASSE lionel velo cité millau 02:42:43 82 32,08
84 1529 LORENZIN bruno cc sigean 02:42:44 83 32,07
85 1275 GARCIA laurent montagnac avenir cycliste 02:42:45 84 32,07
86 1301 SERRANO jean francois vcll pezenas 02:42:46 85 32,07
87 1599 SOARES jean marc ariegeoise cyclo club 02:42:46 86 32,07
88 1549 NOHARET michel teyran bike 34 02:42:49 87 32,06
89 1429 RAZEAU vincent   02:42:49 88 32,06
90 1604 PONTELLO guillaume les chameaux de beziers 02:42:49 89 32,06
91 1553 PUECH emmanuel asph 02:42:50 90 32,06
92 1493 TORQUEBIAU philippe club neutre lr 02:42:50 91 32,06
93 1497 BRUN laurent sud velo ne jetez plus 02:42:50 92 32,06
94 1398 MONSEGUR franck vcll pezenas 02:42:50 93 32,06
95 1490 RODIER luc teyran bike 34 02:42:51 94 32,05
96 1468 NEROZZI laurent vs saint affricain 02:42:52 95 32,05
97 1516 TABUTEAU stephane montagnac avenir cycliste 02:42:53 96 32,05
98 1487 ROUSSILLE william vc mauguio 02:42:53 97 32,05
99 1402 EVE marcel usa toulouges 02:42:53 98 32,04
100 1360 NUCCIO olivier roue libre gignacoise 02:42:53 99 32,04
101 1372 JALABERT alain ec balaruc 02:42:54 100 32,04
102 1568 GARCIA patrick montagnac avenir cycliste 02:42:54 101 32,04
103 1413 PASCAL regis mende run and bike 02:42:55 102 32,04
104 1316 FOURES patrice velo 2000 onet 02:42:55 103 32,04
105 1426 HAK christel vc mende lozere 02:42:55 2 32,04
106 1425 ROQUES yves   02:42:57 104 32,03
107 1535 CAZCARRA florence audax narbonne 02:42:57 3 32,03
108 1606 FOURNIER jean francois vc vedasien 02:42:58 105 32,03
109 1218 LEMATTRE thibaut ec anduze 02:43:19 106 31,96
110 1368 VALLEJO cedric vo2 cres 02:43:42 107 31,89
111 1457 BOURGAREL christophe   02:44:19 108 31,76
112 1556 VALETTE eric   02:44:50 109 31,67
113 1241 TOUREN christophe club neutre lr 02:46:03 110 31,44
114 1449 LODOVICCI cedric vc de prot de bouc 02:46:17 111 31,39
115 1448 RICHARD jean bernard vc de port de bouc 02:46:17 112 31,39
116 1450 ROMANET guillaume vc de port de bouc 02:46:18 113 31,39
117 1309 CAUSSEL louis la fleche du midi 02:46:19 114 31,38
118 1494 BONNET christophe sud velo ne jetez plus 02:46:20 115 31,38
119 1544 OLLIVIER vincent   02:46:21 116 31,38
120 1357 FONTERS eric vc vailhauques 02:46:22 117 31,38
121 1427 DELDON olivier   02:46:23 118 31,37
122 1260 BARBAZA christian   02:46:23 119 31,37
123 1548 DEBAR guy aagac najac 02:46:30 120 31,35
124 1310 CHABBERT henri noel vcll pezenas 02:48:50 121 30,92
125 1369 PARRA jean charles montagnac avenir cycliste 02:48:50 122 30,92
126 1286 AUTRIC frederic poulain bike 02:48:51 123 30,91
127 1442 CHAUZU ludovic lunel bike 02:48:52 124 30,91
128 1312 ENJALRIC yves   02:48:53 125 30,91
129 1492 CHAPEL alain   02:48:54 126 30,90
130 1362 VEZINHET joel roue libre gignacoise 02:48:55 127 30,90
131 1517 SAIX fabien tri grande motte 02:48:55 128 30,90
132 1530 DUHAU thierry tmbsa 02:48:55 129 30,90
133 1611 BARDE jean charles la flleche du midi 02:48:55 130 30,90
134 1461 BERTUIT Claude Bike Aventure 02:48:55 131 30,90
135 1318 GEORGERENS cedric   02:48:55 132 30,90
136 1440 CARUSO jean marc lunel bike 02:48:56 133 30,90
137 1325 RODRIGUEZ francis   02:48:56 134 30,90
138 1381 ALIAGA jean-marie asph 02:49:00 135 30,89
139 1358 COMBES jean louis vcll pezenas 02:49:03 136 30,88
140 1595 SAGNARD nouri croco d'airin nimes triathlon 02:51:00 137 30,53
141 1477 BRUEL jean louis vc mende lozere 02:51:18 138 30,47
142 1508 VEZIERS nicolas sud velo ne jetez plus 02:51:24 139 30,45
143 1280 LEGRAND franck saint mathieu de treviers 02:51:31 140 30,43
144 1397 MARTINEZ jean tam cyclo 02:51:35 141 30,42
145 1400 RAVET claude montagnac avenir cycliste 02:51:36 142 30,42
146 1594 BONAFOS romain guidon sportif sétois 02:51:36 143 30,42
147 1610 COPPOLA gerald   02:51:37 144 30,42
148 1231 FREMONT yves uc villers saint paul 02:51:37 145 30,42
149 1423 TOLMOS sebastien asph 02:51:37 146 30,41
150 1424 PRIVAT eric   02:51:37 147 30,41
151 1557 ARNAUD sebastien beziers triathlon 02:51:38 148 30,41
152 1389 CABASSUT yvan vc vailhauques 02:51:39 149 30,41
153 1373 FERNANDEZ gilles ec balaruc 02:51:43 150 30,40
154 1407 SOLER philippe apc 12 02:51:44 151 30,39
155 1328 CORNUT stephane   02:52:35 152 30,24
156 1434 BROS thierry vc mauguio 02:52:43 153 30,22
157 1598 ENJOLRAS pascal vc mauguio 02:52:44 154 30,22
158 1399 MORI j.christophe tam cyclo 02:52:44 155 30,22
159 1453 BRONGO nicolas martigues sport cyclisme 02:52:45 156 30,22
160 1541 SOULARD jacky   02:52:46 157 30,21
161 1411 COQUART pierre   02:52:46 158 30,21
162 1303 LEMATTRE bertrand ec anduze 02:52:46 159 30,21
163 1340 MUSSET bernard o.c.p. 02:52:47 160 30,21
164 1559 BEAUZEDAT rene vc alesien 02:52:48 161 30,21
165 1220 SENECHAL david ec poussan 02:52:48 162 30,21
166 1359 MILLAN laurence corneilla cyclsport catalan 02:52:48 4 30,21
167 1532 BOUZAT vidian   02:52:50 163 30,20
168 1545 CHICHEPORTICHE michel teyran bike 34 02:52:52 164 30,20
169 1524 THOPART christophe amiens sport cycliste 02:52:54 165 30,19
170 1422 ROUJON jacques   02:52:56 166 30,18
171 1475 DUPEYRE eric montagnac avenir cycliste 02:53:43 167 30,05
172 1543 ENGELHARDT fabrice   02:54:14 168 29,96
173 1458 CARAMEL alain   02:54:14 169 29,96
174 1292 MINGOT wilfried la vaillante asso sport et handicap 02:54:28 170 29,92
175 1417 TISSEYRE gilles   02:55:13 171 29,79
176 1224 PERRET monique la fleche du midi 02:55:53 5 29,68
177 1225 GERAUD alain la fleche du midi 02:55:54 172 29,67
178 1446 LUCY emeric lunel bike 02:57:10 173 29,46
179 1392 VOL fabien   02:57:37 174 29,39
180 1454 MOUYSSET alain vc vailhauques 02:57:37 175 29,39
181 1263 LALLOUCHE salem montagnac avenir cycliste 02:57:39 176 29,38
182 1386 SOLER gilles vc mauguio 02:57:40 177 29,38
183 1253 PROVENSOL alain as formica 02:57:40 178 29,38
184 1382 RESCHKE j.gregoire montpellier agglo triathlon 02:57:41 179 29,38
185 1409 BERNAT michel montrejeau cc 02:57:42 180 29,38
186 1534 VALETTE serge teyran bike 34 02:57:42 181 29,37
187 1546 QUINTANA jean cc sigean 02:57:42 182 29,37
188 1269 SORIANO rené   02:57:43 183 29,37
189 1349 DE SAN PEDRO georges montagnac avenir cycliste 02:57:45 184 29,36
190 1354 CALMELS frederic   02:57:50 185 29,35
191 1283 CAMBON roland   02:58:21 186 29,27
192 1290 ASIL claude   02:59:47 187 29,03
193 1236 FABRE guy cc pyrenéen 02:59:48 188 29,03
194 1436 FISTON philibert ac clapiers 02:59:50 189 29,03
195 1227 MARGUERITAT jean michel ec poussan 02:59:54 190 29,01
196 1488 COURTOIS herve tc narbonne 02:59:55 191 29,01
197 1377 BEVIS helen teyran bike 34 02:59:56 6 29,01
198 1479 MEJEAN philippe roue d'or brignoles 03:00:50 192 28,86
199 1364 DONDEY alain   03:00:53 193 28,86
200 1380 TEZIER frederic ec balaruc 03:00:55 194 28,85
201 1350 BORDIER gerard saint lezer sport et detente 03:00:56 195 28,85
202 1250 KINDELBERGER yann   03:00:56 196 28,85
203 1513 RIVEMALE guy   03:00:57 197 28,85
204 1452 CLAVEL olivier club neutre lr 03:00:57 198 28,85
205 1444 MICHEL serge lunel bike 03:01:51 199 28,70
206 1536 PUECH alain   03:02:28 200 28,61
207 1607 MICLO sylvie velo cite 03:02:31 7 28,60
208 1586 SABATIER marie jeanne   03:02:32 8 28,60
209 1249 GONZALEZ andre club neutre lr 03:02:33 201 28,59
210 1237 JONQUET jean luc   03:02:34 202 28,59
211 1366 SANTOS patrice roue libre gignacoise 03:02:34 203 28,59
212 1579 PEREIRA gerard teyran bike 34 03:02:34 204 28,59
213 1353 METGE david vc mont aigoual 03:02:35 205 28,59
214 1289 CHABRAT jacques   03:02:39 206 28,58
215 1216 DELAROQUE philippe   03:03:20 207 28,47
216 1215 SAUVAGE florian   03:03:22 208 28,47
217 1433 DEVISE olivier vc mauguio 03:03:25 209 28,46
218 1240 MAS jean françois club neutre lr 03:03:26 210 28,46
219 1317 ROQUES serge   03:03:26 211 28,46
220 1235 DUMETZ georges   03:03:27 212 28,45
221 1233 QUADPEERD michel uc villers saint paul 03:03:28 213 28,45
222 1277 HUGONIN pascal cc pyrenéen 03:03:28 214 28,45
223 1403 LEBOURGEOIS jean ascc 03:03:28 215 28,45
224 1597 SCHWAGER alexandre vc bressolois 03:03:38 216 28,42
225 1384 DIDES jean jacques vcll pezenas 03:03:39 217 28,42
226 1406 ESMANS eric roue libre gignacoise 03:04:20 218 28,32
227 1305 SCHEMBRI jerome   03:04:21 219 28,32
228 1300 ROIG-GAUTIER magali vélo plus 03:04:46 9 28,25
229 1299 GAUTIER frederic velo plus 03:04:47 220 28,25
230 1564 COURTES charles   03:05:25 221 28,15
231 1378 MAJOULET hugues   03:06:00 222 28,06
232 1202 GERARD fabien   03:06:04 223 28,05
233 1416 BLANC patrice   03:06:07 224 28,05
234 1344 MAS christian   03:06:08 225 28,04
235 1404 CAJETTA didier   03:06:09 226 28,04
236 1365 BARTHELEMY didier roue libre gignacoise 03:06:09 227 28,04
237 1271 FERRAND dominique roue libre gignacoise 03:06:10 10 28,04
238 1247 FOUET jacques as formica 03:08:10 228 27,74
239 1251 SADOURNY patrick as formica 03:08:11 229 27,74
240 1533 METAIS jean mousquetaires pradéens 03:08:36 230 27,68
241 1612 LABATAILLE jeremy   03:08:42 231 27,66
242 1226 CHEVE patrick   03:08:50 232 27,64
243 1462 MANDART nadege cc rivesaltes 03:08:53 11 27,63
244 1470 GUIGOU fabrice club neutre lr 03:08:55 233 27,63
245 1421 MATEO marc   03:10:13 234 27,44
246 1550 PERIER guillaume   03:10:16 235 27,43
247 1491 DUMON patricia teyran bike 34 03:10:29 236 27,40
248 1401 PAMIES tierry   03:10:29 237 27,40
249 1322 VIGNOLES pascal aml valence d'agen 03:10:29 238 27,40
250 1288 DESSANT françois   03:10:30 239 27,40
251 1343 CROUZET christian acc castries 03:10:32 240 27,40
252 1525 MOYNIER marinette vc vailhauques 03:10:34 12 27,39
253 1590 VIOLET laurent vcv vailhauques 03:10:34 241 27,39
254 1295 FOUGA gilles ec poussan 03:10:38 242 27,38
255 1614 GERMINAL alain esp cyclisme 03:10:38 243 27,38
256 1480 LAMOUROUX frédéric montagnac avenir cycliste 03:10:43 244 27,37
257 1211 LOUBET bernard   03:11:44 245 27,22
258 1294 AZEMAR alain roue libre gignacoise 03:11:47 246 27,22
259 1589 VELATI jerome   03:12:30 247 27,12
260 1246 RAZIMBEAU laurent   03:12:39 248 27,09
261 1540 ESCHAPASSE frederic   03:12:40 249 27,09
262 1276 DAGORNE jean paul   03:12:40 250 27,09
263 1580 PIERI fabrice   03:12:41 251 27,09
264 1212 FIS jean gabriel   03:14:05 252 26,89
265 1558 BARTHE arnaud   03:14:07 253 26,89
266 1379 PAULET jean pierre ec balaruc 03:14:21 254 26,86
267 1527 DARDENNES henri vc de toucy 03:14:35 255 26,82
268 1526 DARDENNES christophe vc de toucy 03:14:36 256 26,82
269 1252 VALENTI thierry   03:15:41 257 26,67
270 1287 FLINOIS dany   03:16:12 258 26,61
271 1239 MAREC patrick   03:16:32 259 26,56
272 1257 LANDIER andre club neutre lr 03:19:43 260 26,14
273 1261 BRUYERE jacques vs castres 03:19:44 261 26,13
274 1476 RACCAGNI stefano ascc 03:19:54 262 26,11
275 1281 LIAUDET nathanael   03:20:06 263 26,09
276 1329 LEBEAUX philippe corneilla cyclsport catalan 03:20:12 264 26,07
277 1330 LEBEAUX katia corneilla cyclsport catalan 03:20:15 13 26,07
278 1232 MENET joel uc villers saint paul 03:20:21 265 26,05
279 1267 DAUMOND jean claude vc mauguio 03:20:25 266 26,04
280 1447 MARIN benjamin lunel bike 03:20:52 267 25,99
281 1506 HUC jerome sud velo ne jetez plus 03:20:53 268 25,98
282 1443 SIMON jacky lunel bike 03:22:59 269 25,71
283 1266 CAMELIERE michel   03:23:09 270 25,69
284 1523 MEUNIER jerome velo plus 03:23:29 271 25,65
285 1370 GUITARD thibaud   03:23:34 272 25,64
286 1420 HALLEY sylvette vc vailhauques 03:23:55 14 25,60
287 1415 HALLEY francis vc vailhauques 03:24:02 273 25,58
288 1284 JOUFFROY olivier bike aventure 03:24:14 274 25,56
289 1441 GALABRUN andré lunel bike 03:24:51 275 25,48
290 1256 ALCAZAR jacques roue libre gignacoise 03:25:26 276 25,41
291 1278 GASPARINI romain as carcassonne cycliste 03:25:30 277 25,40
292 1463 MANDART raymond cc rivesaltes 03:25:44 278 25,37
293 1262 ANDRIEUX christian vc lunel 03:26:46 279 25,25
294 1264 SOLA patrick   03:27:44 280 25,13
295 1375 ANTOINE marc ec balaruc 03:27:51 281 25,11
296 1374 GASC jacky ec balaruc 03:27:55 282 25,11
297 1273 GAY robert as union 03:28:03 283 25,09
298 1274 MONDY michel as union 03:28:19 284 25,06
299 1228 VIDAMO patrick   03:28:20 285 25,06
300 1388 METAIS pascale mousquetaires cycliste pradeens 03:28:31 15 25,03
301 1361 QUEFELEC jean v v c saint mathieu de treviers 03:28:37 286 25,02
302 1514 WOOCK laurent   03:28:40 287 25,02
303 1521 FRAISSE francis ec balaruc 03:28:47 288 25,00
304 1311 CHABBERT nathalie vcll pezenas 03:28:50 16 24,99
305 1342 RENARD gerard acc castries 03:28:59 289 24,98
306 1326 BEAUMONT laurence as teyran bike 34 03:29:02 17 24,97
307 1234 JAUFFRET serge   03:29:15 290 24,94
308 1268 LOPEZ marc   03:29:23 291 24,93
309 1385 TOLMOS jean-claude teyran bike 34 03:30:06 292 24,84
310 1519 FORESTIER didier   03:30:13 293 24,83
311 1293 BALCEREK bernard   03:33:51 294 24,41
312 1320 VLAEMYNCK carole cevenne triathlon 03:34:58 18 24,28
313 1291 GAREL didier   03:36:11 295 24,15
314 1567 FULCRAND bernard   03:37:26 296 24,01
315 1347 TREBUCHON jean claude vcll pezenas 03:38:02 297 23,94
316 771 BALESTER brice ec balaruc 03:38:03 298 23,94
317 1348 TREBUCHON marie noelle vcll pezenas 03:38:03 19 23,94
318 1472 HAMARD ernest vc lunel 03:38:05 299 23,94
319 1297 REIGNIER alain   03:38:08 300 23,93
320 1387 CHAVIGNAY emilie v triathlon 03:40:03 20 23,72
321 1282 DEPART philippe   03:40:26 301 23,68
322 1248 BOSOM yves montagnac avenir cycliste 03:40:26 302 23,68
323 1270 FERRE jean   03:40:53 303 23,63
324 1244 JOULIE henri   03:42:25 304 23,47
325 1217 ENJALRIC jacques roue libre gignacoise 03:44:13 305 23,28
326 1321 CAUMES michel roue libre gignacoise 03:44:14 306 23,28
327 1510 GIL frederic   03:45:35 307 23,14
328 1605 COUDERQ sylvaine   03:47:09 21 22,98
329 1539 MORET jean-marc   03:51:36 308 22,54
330 1430 GALON jean philippe   03:53:55 309 22,31
331 1591 BOEUF robert   03:53:55 310 22,31
332 1537 ROMARIN alain   03:53:55 311 22,31
333 1520 BISTUE gilles   03:53:55 312 22,31
334 1435 THIBON sylvain   03:53:55 313 22,31
335 1601 CHAPUIS jean-paul ascc 03:55:50 314 22,13
336 1515 PORTAILLER georges ascc 03:55:50 315 22,13
337 1512 GIL jean-louis   03:55:50 316 22,13
338 1307 BENEVENS cedric   03:57:55 317 21,94
339 1230 BENEVENS francis   03:57:55 318 21,94
340 1308 BENEVENS sylvain   03:57:55 319 21,94
341 1242 BENEVENS sebastien   03:57:55 320 21,94
342 1243 BENEVENS gerard   03:57:55 321 21,94
343 1554 GUILLOU catherine sud velo ne jetez plus 04:09:41 322 20,91
344 1500 COLLET gwenaelle sud velo ne jetez plus 04:12:32 22 20,67
345 1499 CHAPEL claudine sud velo ne jetez plus 04:13:57 23 20,55
346 1352 LEBAS dimitri   04:14:18 323 20,53
347 1603 JOURNET stephane   04:14:59 324 20,47
348 1577 MENNELA marc   04:16:48 325 20,33
349 1489 RUSSEAU franck vc salindres 05:22:06 326 16,21
350 1323 BAZALGETTE sylvain mende run and bike 05:51:07 327 14,87